Fort Knox, KY

5:48 PM EDT on October 17, 2017 (GMT -0400)
Godman Army Air Field

Weather History for KFTK - November, 2012

Change the Weather History Date:

Thursday, November 22, 2012

  Actual Average Record
Temperature  
Mean Temperature 51 °F -  
Max Temperature 66 °F 52 °F 73 °F (2010)
Min Temperature 36 °F 34 °F 15 °F (2000)
Degree Days  
Heating Degree Days 14    
Growing Degree Days 1 (Base 50)    
Moisture  
Dew Point 40 °F    
Average Humidity 72    
Maximum Humidity 95    
Minimum Humidity 44    
Precipitation  
Precipitation 0.00 in - - ()
Sea Level Pressure  
Sea Level Pressure 30.15 in    
Wind  
Wind Speed 3 mph (South)    
Max Wind Speed 15 mph    
Max Gust Speed -    
Visibility 9 miles    
Events      
Averages and records for this station are not official NWS values.
T = Trace of Precipitation, MM = Missing Value Source: NWS Daily Summary

Daily Weather History Graph

Daily Weather History Graph

Search for Another Location

Airport or City:

Trip Planner

Search our weather history database for the weather conditions in past years. The results will help you decide how hot, cold, wet, or windy it might be!

Date:

Astronomy

Nov. 22, 2012 Rise Set
Actual Time 7:32 AM EST 5:27 PM EST
Civil Twilight 7:03 AM EST 5:56 PM EST
Nautical Twilight 6:31 AM EST 6:28 PM EST
Astronomical Twilight 6:00 AM EST 6:59 PM EST
Moon 2:08 PM EST (11/22) 1:56 AM EST (11/22)
Length of Visible Light 10h 52m
Length of Day
9h 55m
Waxing Gibbous, 71% of the Moon is Illuminated
Nov 22
Waxing Gibbous
Nov 28
Full
Dec 6
Last Quarter
Dec 13
New
Dec 20
First Quarter

Hourly Weather History & Observations

Time (EST) Temp. Dew Point Humidity Pressure Visibility Wind Dir Wind Speed Gust Speed Precip Events Conditions
12:55 AM 39.9 °F 37.2 °F 90% 30.20 in 10.0 mi Calm Calm - N/A   Clear
1:55 AM 39.9 °F 36.9 °F 89% 30.20 in 10.0 mi Calm Calm - N/A   Clear
2:55 AM 38.8 °F 35.8 °F 89% 30.20 in 10.0 mi Calm Calm - N/A   Clear
3:55 AM 38.5 °F 36.3 °F 92% 30.21 in 10.0 mi Calm Calm - N/A   Clear
3:59 AM 39.2 °F 35.6 °F 87% 30.27 in 10.0 mi Calm Calm - N/A   Clear
4:55 AM 37.9 °F 36.3 °F 94% 30.20 in 9.0 mi Calm Calm - N/A   Clear
5:55 AM 36.3 °F 34.9 °F 95% 30.21 in 4.0 mi Calm Calm - N/A   Clear
6:55 AM 36.5 °F 34.9 °F 94% 30.21 in 5.0 mi Calm Calm - N/A   Clear
7:55 AM 36.5 °F 34.3 °F 92% 30.22 in 6.0 mi Calm Calm - N/A   Partly Cloudy
8:55 AM 42.4 °F 39.6 °F 90% 30.22 in 10.0 mi Calm Calm - N/A   Clear
9:55 AM 52.0 °F 41.7 °F 68% 30.21 in 10.0 mi South 5.8 mph - N/A   Clear
10:55 AM 57.6 °F 42.6 °F 57% 30.20 in 10.0 mi SSW 8.1 mph - N/A   Clear
11:55 AM 62.6 °F 43.7 °F 50% 30.17 in 10.0 mi SSW 9.2 mph - N/A   Clear
12:55 PM 65.1 °F 43.7 °F 46% 30.14 in 10.0 mi SSW 15.0 mph - N/A   Clear
1:55 PM 66.2 °F 44.1 °F 45% 30.12 in 10.0 mi South 13.8 mph - N/A   Clear
2:55 PM 65.8 °F 44.2 °F 46% 30.11 in 10.0 mi South 15.0 mph - N/A   Clear
3:55 PM 64.9 °F 42.3 °F 44% 30.11 in 10.0 mi South 12.7 mph - N/A   Clear
4:55 PM 60.3 °F 43.9 °F 55% 30.10 in 10.0 mi South 8.1 mph - N/A   Clear
5:55 PM 56.1 °F 42.3 °F 60% 30.09 in 10.0 mi South 5.8 mph - N/A   Overcast
6:55 PM 55.2 °F 42.1 °F 61% 30.09 in 10.0 mi South 4.6 mph - N/A   Overcast
7:55 PM 52.0 °F 41.4 °F 67% 30.09 in 10.0 mi South 6.9 mph - N/A   Clear
8:55 PM 51.3 °F 41.5 °F 69% 30.09 in 10.0 mi SSW 5.8 mph - N/A   Scattered Clouds
9:55 PM 50.7 °F 41.7 °F 71% 30.06 in 10.0 mi South 6.9 mph - N/A   Clear
10:55 PM 49.5 °F 41.2 °F 73% 30.07 in 10.0 mi SSW 6.9 mph - N/A   Partly Cloudy
11:55 PM 49.3 °F 39.9 °F 70% 30.07 in 10.0 mi South 6.9 mph - N/A   Scattered Clouds